Date,TemperatureHighF,TemperatureAvgF,TemperatureLowF,DewpointHighF,DewpointAvgF,DewpointLowF,HumidityHigh,HumidityAvg,HumidityLow,PressureMaxIn,PressureMinIn,WindSpeedMaxMPH,WindSpeedAvgMPH,GustSpeedMaxMPH,PrecipitationSumIn
2013-1-1,45.5,40.5,34.7,45.0,37.1,23.0,97,88,58,30.18,30.02,3,0,6,0.15
2013-1-2,42.6,37.1,34.7,42.0,35.2,33.0,97,93,87,30.19,30.00,7,1,8,0.00
2013-1-3,38.1,33.5,28.4,34.0,30.7,25.0,97,89,76,30.38,30.16,6,1,9,0.00
2013-1-4,38.0,29.7,25.1,26.0,22.7,19.0,89,76,48,30.49,30.37,8,2,11,0.00
2013-1-5,44.9,34.8,25.4,31.0,23.4,19.0,83,65,44,30.50,30.31,3,0,4,0.00
2013-1-6,40.6,37.4,35.3,36.7,33.3,29.0,94,85,67,30.30,30.14,6,1,12,0.00
2013-1-7,48.4,37.3,28.9,31.0,27.1,24.0,87,68,40,30.48,30.30,12,2,15,0.00
2013-1-8,52.3,40.4,30.8,41.0,33.3,26.9,89,76,53,30.51,30.37,4,1,6,0.00
2013-1-9,51.9,44.7,40.8,49.0,43.1,38.0,96,94,88,30.52,30.43,2,0,3,0.00
2013-1-10,62.8,53.9,46.9,54.0,49.6,46.0,97,86,70,30.53,30.31,7,1,12,0.00
2013-1-11,55.4,52.6,48.0,54.0,51.1,47.0,97,94,90,30.30,30.11,7,1,9,0.11
2013-1-12,68.0,61.1,53.9,61.6,57.0,52.0,98,87,75,30.19,30.05,6,1,13,0.01
2013-1-13,69.8,63.4,56.6,58.0,54.4,51.0,92,73,58,30.08,29.98,6,2,13,0.02
2013-1-14,59.2,53.1,43.5,58.0,52.3,43.0,98,97,94,30.21,29.99,5,0,7,1.72
2013-1-15,52.2,48.1,44.7,52.0,47.3,44.0,98,97,94,30.16,30.01,5,1,16,1.27
2013-1-16,56.5,50.7,47.6,54.0,49.9,47.0,98,97,92,30.05,29.95,2,0,11,0.42
2013-1-17,48.7,40.9,32.4,48.0,39.6,29.0,98,95,86,30.28,29.84,9,2,16,1.81
2013-1-18,41.4,33.1,27.0,29.0,25.4,22.0,88,74,48,30.59,30.31,8,1,12,0.00
2013-1-19,50.0,39.1,27.8,33.7,27.5,22.0,91,66,37,30.53,30.23,2,0,3,0.00
2013-1-20,52.6,41.7,33.6,35.5,29.1,22.8,79,62,37,30.23,30.11,6,2,10,0.00
2013-1-21,48.4,38.3,30.2,31.0,22.7,13.0,83,56,35,30.16,30.02,9,3,13,0.00
2013-1-22,29.7,23.7,19.4,13.0,4.2,-4.0,58,44,25,30.35,30.11,11,5,15,0.00
2013-1-23,40.0,29.1,21.6,24.0,13.8,4.0,66,53,44,30.45,30.17,6,1,8,0.00
2013-1-24,41.5,31.3,24.1,31.0,14.2,5.0,69,50,36,30.45,30.12,15,4,19,0.00
2013-1-25,34.3,28.1,21.7,33.3,22.5,5.0,96,81,48,30.48,30.17,7,1,17,0.02
2013-1-26,42.4,34.6,29.8,33.3,29.2,27.0,96,81,57,30.41,30.22,6,1,7,0.00
2013-1-27,43.1,33.6,26.8,32.5,28.4,24.9,94,82,64,30.55,30.41,3,0,6,0.03
2013-1-28,60.5,47.8,34.0,47.7,40.9,31.0,92,78,59,30.49,30.27,4,1,10,0.00
2013-1-29,69.1,56.0,43.5,56.7,50.1,41.6,95,82,54,30.27,29.96,7,1,12,0.01
2013-1-30,66.0,58.6,43.3,59.0,54.6,39.0,96,87,76,29.97,29.43,10,2,17,1.31
2013-1-31,43.5,33.6,28.3,39.0,22.9,18.0,92,66,49,30.07,29.52,9,3,12,0.01
2013-2-1,40.3,24.5,18.2,31.0,13.2,7.0,88,62,51,30.45,30.00,15,4,18,0.00
2013-2-2,39.4,28.9,17.7,31.4,21.8,10.0,95,75,52,30.45,30.12,6,1,10,0.00
2013-2-3,40.1,34.5,28.6,33.0,26.6,21.0,96,74,55,30.14,29.98,13,4,15,0.04
2013-2-4,49.2,36.1,23.5,30.0,23.4,19.0,84,62,42,30.21,30.03,6,1,16,0.00
2013-2-5,51.7,42.8,35.6,38.0,31.7,23.0,74,65,51,30.05,29.96,4,1,7,0.00
2013-2-6,53.5,44.7,36.7,36.0,28.7,23.9,79,56,32,30.25,30.05,5,1,8,0.00
2013-2-7,46.8,43.0,40.6,41.0,31.8,22.8,95,68,42,30.27,30.01,4,0,7,0.55
2013-2-8,47.3,40.9,32.8,44.0,36.5,27.0,96,85,59,30.23,29.96,10,3,17,0.02
2013-2-9,51.7,41.1,27.1,27.0,18.2,6.0,86,46,16,30.39,30.22,5,1,8,0.00
2013-2-10,50.1,44.1,39.7,46.0,28.5,21.0,95,57,36,30.39,30.10,8,3,22,0.32
2013-2-11,55.8,49.4,43.6,52.0,45.2,34.0,97,86,65,30.13,30.02,5,1,12,0.03
2013-2-12,49.2,41.8,36.1,38.0,30.1,25.8,93,65,47,30.19,29.94,4,1,6,0.15
2013-2-13,51.6,40.5,34.4,44.0,36.8,29.0,95,87,66,29.96,29.67,6,2,11,0.09
2013-2-14,48.3,39.4,30.1,32.0,29.0,27.0,89,68,47,30.12,29.96,4,1,7,0.00
2013-2-15,55.1,38.8,30.0,38.0,31.6,27.0,90,77,39,30.16,30.00,6,2,9,0.00
2013-2-16,33.1,28.5,22.5,28.0,20.6,10.0,88,72,56,30.09,29.93,10,4,18,0.00
2013-2-17,32.0,26.5,20.1,12.4,10.3,7.0,64,51,39,30.35,30.10,12,5,16,0.01
2013-2-18,50.8,37.8,22.3,26.0,20.7,11.0,72,51,36,30.46,30.18,6,1,13,0.00
2013-2-19,49.7,40.1,33.2,41.0,27.4,14.0,95,63,34,30.19,29.92,9,2,12,0.07
2013-2-20,42.2,33.3,26.7,16.0,11.1,7.0,55,40,24,30.24,30.12,9,3,12,0.00
2013-2-21,56.7,41.4,24.1,35.0,16.5,2.0,91,42,14,30.31,30.12,8,1,20,0.31
2013-2-22,40.7,37.8,34.9,38.0,35.1,30.7,95,90,82,30.27,30.11,7,2,14,0.22
2013-2-23,52.6,47.0,39.1,49.2,45.0,38.0,97,93,86,30.13,29.86,3,0,9,0.21
2013-2-24,50.5,43.1,35.5,42.5,32.4,24.0,94,69,40,30.09,29.89,10,2,13,0.00
2013-2-25,45.2,38.9,33.2,32.0,26.4,24.0,91,62,48,30.15,30.03,6,1,21,0.00
2013-2-26,42.6,37.1,32.9,40.0,35.6,31.0,96,94,90,30.03,29.57,10,2,16,0.95
2013-2-27,49.4,41.6,35.4,38.0,33.2,29.8,95,73,60,29.86,29.70,6,1,9,0.01
2013-2-28,37.2,34.0,30.9,34.0,25.8,23.0,92,72,60,29.99,29.77,10,4,15,0.00
2013-3-1,36.5,33.0,30.3,29.0,27.2,25.0,87,79,68,30.03,29.97,6,2,9,0.00
2013-3-2,37.3,31.5,25.4,29.0,25.6,20.0,90,79,59,30.04,29.92,7,3,12,0.01
2013-3-3,28.6,25.2,21.8,21.0,16.9,14.7,88,71,61,30.15,30.04,10,5,13,0.00
2013-3-4,47.9,35.8,23.2,19.1,17.2,15.0,74,50,30,30.27,30.13,6,2,9,0.00
2013-3-5,48.2,40.1,33.6,47.0,34.3,18.0,96,81,42,30.14,29.68,7,2,10,1.01
2013-3-6,33.4,28.9,25.6,27.6,23.8,20.6,92,81,70,30.27,29.76,11,6,15,0.00
2013-3-7,35.2,29.8,27.1,28.0,25.5,23.7,90,84,75,30.41,30.27,7,2,13,0.00
2013-3-8,46.6,34.9,25.0,26.0,23.2,18.0,89,66,34,30.46,30.36,9,2,11,0.00
2013-3-9,60.9,47.8,28.4,31.7,27.2,20.0,83,49,21,30.41,30.25,13,2,17,0.00
2013-3-10,62.4,53.3,45.6,36.0,32.0,29.0,56,45,33,30.28,30.10,5,2,11,0.00
2013-3-11,54.9,51.0,48.9,50.5,47.6,35.0,96,88,54,30.13,29.82,8,2,16,0.79
2013-3-12,51.8,42.9,36.8,50.2,38.3,29.4,96,85,52,30.09,29.78,7,3,12,0.20
2013-3-13,42.1,35.9,29.0,31.0,23.0,17.0,79,60,44,30.27,30.09,11,4,15,0.00
2013-3-14,42.3,31.8,23.5,18.6,15.6,13.0,66,53,34,30.40,30.27,9,3,16,0.00
2013-3-15,66.5,49.1,30.6,42.0,32.1,16.0,80,54,25,30.30,29.97,4,1,8,0.00
2013-3-16,73.8,65.2,56.5,47.5,44.6,40.8,57,48,36,29.96,29.72,7,2,12,0.00
2013-3-17,72.1,62.4,51.0,49.0,45.6,39.0,81,56,33,29.92,29.79,7,2,21,0.00
2013-3-18,50.7,44.1,41.0,45.3,41.3,37.0,96,90,81,30.00,29.81,16,3,26,0.75
2013-3-19,52.4,44.7,36.5,42.3,28.2,10.7,97,58,27,30.13,29.88,10,3,15,0.00
2013-3-20,50.4,39.8,30.2,30.5,14.0,6.0,91,37,20,30.16,29.88,8,2,10,0.00
2013-3-21,32.7,28.0,21.1,27.1,14.3,9.9,88,57,42,30.06,29.88,12,4,12,0.00
2013-3-22,45.9,30.9,21.6,23.0,14.9,11.0,72,53,32,30.14,30.05,5,1,9,0.00
2013-3-23,52.1,44.4,36.3,42.6,38.0,23.0,94,79,55,30.10,29.86,7,1,14,0.06
2013-3-24,46.7,42.5,38.1,42.7,39.8,37.0,96,90,75,29.91,29.48,6,2,20,1.11
2013-3-25,37.7,33.4,28.8,37.0,23.4,19.3,96,67,53,29.99,29.55,12,4,15,0.00
2013-3-26,36.7,30.6,27.1,27.0,24.1,22.0,86,77,65,30.30,30.00,8,4,13,0.00
2013-3-27,40.5,33.1,28.3,26.0,23.7,19.0,85,69,53,30.38,30.29,8,3,14,0.00
2013-3-28,48.4,38.3,27.5,24.0,20.7,18.0,79,51,32,30.41,30.30,8,2,11,0.00
2013-3-29,53.2,39.2,28.9,37.3,30.3,20.0,95,73,33,30.41,30.30,8,1,10,0.12
2013-3-30,59.8,50.2,37.5,45.2,40.8,36.0,97,73,48,30.31,30.06,5,1,7,0.23
2013-3-31,62.7,51.7,46.1,52.8,48.0,40.6,96,88,59,30.07,29.85,6,1,8,0.43
2013-4-1,59.1,50.0,41.0,49.0,42.0,33.0,96,77,48,30.03,29.89,11,2,14,0.01
2013-4-2,51.2,43.4,36.5,33.0,25.4,20.0,68,51,30,30.20,30.03,7,3,12,0.00
2013-4-3,55.5,46.8,34.9,25.0,20.2,15.0,46,35,25,30.31,30.20,5,1,9,0.00
2013-4-4,47.1,38.7,34.0,37.0,31.3,22.0,95,78,39,30.26,30.02,5,1,10,0.53
2013-4-5,53.7,46.1,36.7,41.0,36.4,33.6,97,71,48,30.14,30.01,6,2,12,0.00
2013-4-6,65.3,52.4,36.7,42.6,34.7,31.8,85,54,32,30.26,30.12,5,1,10,0.00
2013-4-7,69.4,60.3,45.8,46.0,41.3,33.0,68,51,33,30.20,30.04,5,2,12,0.00
2013-4-8,75.3,62.5,50.5,52.0,47.1,42.0,78,59,38,30.14,30.01,7,1,13,0.00
2013-4-9,79.2,65.7,54.5,57.0,52.9,49.0,84,65,44,30.18,30.04,8,1,12,0.00
2013-4-10,82.3,69.9,56.7,58.0,54.4,51.0,83,60,40,30.08,29.88,8,2,13,0.00
2013-4-11,78.2,65.8,59.1,61.5,56.1,49.0,95,73,36,29.91,29.65,7,1,12,2.42
2013-4-12,62.7,58.0,50.4,58.5,50.9,37.0,97,79,49,29.90,29.58,7,2,10,0.57
2013-4-13,67.4,54.3,44.1,42.1,36.9,25.0,79,55,21,30.07,29.90,8,2,10,0.00
2013-4-14,68.6,57.5,45.7,48.0,40.3,34.0,84,54,32,30.10,29.95,7,2,12,0.00
2013-4-15,69.4,58.6,50.5,56.2,53.1,48.0,95,83,61,30.18,29.96,8,2,13,0.07
2013-4-16,77.8,65.5,55.2,59.0,56.4,53.0,94,74,49,30.25,30.14,13,2,15,0.00
2013-4-17,70.3,63.9,58.4,62.0,58.1,55.0,92,82,69,30.24,30.09,7,1,10,0.04
2013-4-18,72.8,66.1,59.3,60.0,57.0,54.0,90,74,53,30.09,29.88,7,2,13,0.00
2013-4-19,67.7,59.7,42.5,61.6,55.3,33.0,96,85,69,29.96,29.67,9,2,16,0.36
2013-4-20,53.8,45.0,34.1,33.7,29.4,24.1,80,56,36,30.33,29.96,10,3,14,0.00
2013-4-21,60.1,50.3,36.9,37.0,31.9,27.4,81,51,33,30.46,30.33,5,1,15,0.00
2013-4-22,62.3,53.3,41.9,41.0,36.9,33.0,81,56,38,30.41,30.19,5,1,11,0.00
2013-4-23,69.5,56.3,41.0,46.0,38.4,28.0,72,52,35,30.28,30.07,8,2,14,0.00
2013-4-24,72.3,59.6,49.3,58.0,49.5,44.0,88,70,47,30.11,29.97,5,1,9,0.04
2013-4-25,60.7,50.5,40.6,45.0,32.9,23.4,89,56,26,30.37,30.11,9,2,14,0.00
2013-4-26,66.6,55.9,40.3,43.4,35.7,28.0,70,48,31,30.45,30.29,5,1,12,0.00
2013-4-27,54.1,51.1,48.9,51.0,48.2,42.0,96,90,66,30.38,30.23,3,0,4,0.88
2013-4-28,51.9,49.4,46.3,51.0,47.9,45.0,97,94,88,30.25,30.01,7,1,17,1.40
2013-4-29,67.9,58.6,49.5,58.0,52.4,49.0,97,81,58,30.08,29.95,4,1,8,0.00
2013-4-30,74.9,61.5,52.6,58.0,53.6,48.0,96,77,40,30.14,29.98,4,1,10,0.00
2013-5-1,65.7,59.4,55.1,56.0,52.1,50.0,88,77,59,30.25,30.14,4,1,17,0.00
2013-5-2,63.4,55.7,52.7,57.0,52.4,51.0,95,89,75,30.28,30.21,4,1,8,0.04
2013-5-3,59.6,54.8,52.1,52.0,49.8,47.0,96,84,65,30.22,30.06,4,1,12,0.01
2013-5-4,54.3,48.8,46.8,49.0,45.4,38.0,96,88,68,30.07,29.96,6,2,14,0.42
2013-5-5,49.3,47.4,45.3,48.5,46.2,44.0,97,96,92,30.00,29.84,8,1,13,4.98
2013-5-6,63.1,53.7,47.1,51.2,47.5,40.0,97,82,44,29.92,29.80,8,1,13,0.05
2013-5-7,65.1,53.1,44.7,50.0,46.1,43.0,95,79,45,29.98,29.87,5,1,8,0.01
2013-5-8,66.6,56.5,49.9,57.0,52.0,48.8,96,86,63,30.06,29.93,4,0,6,0.04
2013-5-9,72.2,60.7,47.9,59.0,52.4,47.0,97,77,53,30.14,30.04,3,1,6,0.00
2013-5-10,76.7,63.1,53.6,61.0,55.8,51.0,92,78,45,30.12,29.93,2,0,5,0.00
2013-5-11,69.9,63.8,58.1,61.1,57.6,52.0,89,80,70,29.96,29.81,3,0,8,0.00
2013-5-12,59.5,53.5,44.9,52.0,39.3,30.9,86,61,36,30.11,29.91,6,2,9,0.00
2013-5-13,59.2,50.4,42.1,34.9,31.6,28.0,70,50,32,30.23,30.11,4,1,10,0.00
2013-5-14,70.9,55.2,38.1,50.0,40.0,31.0,84,59,37,30.29,30.09,4,1,6,0.00
2013-5-15,82.8,69.7,53.0,59.0,52.1,49.0,86,57,34,30.15,29.95,6,1,8,0.00
2013-5-16,74.6,66.8,60.3,59.0,54.8,50.7,77,66,51,30.03,29.95,3,0,6,0.00
2013-5-17,77.9,67.5,56.4,63.0,56.0,51.4,91,68,45,30.10,29.99,4,0,8,0.00
2013-5-18,69.0,64.5,60.2,64.5,60.3,53.1,96,87,63,30.07,30.00,2,0,8,0.96
2013-5-19,77.5,65.9,60.5,68.4,63.0,59.0,97,91,67,30.10,29.99,4,0,7,0.24
2013-5-20,79.0,68.9,60.6,67.0,63.5,59.6,98,84,63,30.11,29.99,3,0,7,0.00
2013-5-21,81.8,68.8,60.4,70.0,62.9,59.0,97,83,58,30.05,29.91,2,0,6,0.01
2013-5-22,80.8,66.2,60.3,70.0,62.3,58.8,96,88,59,29.98,29.84,3,0,7,0.92
2013-5-23,75.3,64.8,59.6,64.0,59.3,54.0,97,84,54,29.95,29.85,4,0,7,0.04
2013-5-24,61.2,57.3,50.4,54.0,45.4,39.0,91,66,44,30.25,29.94,8,2,15,0.01
2013-5-25,70.8,60.6,44.6,44.2,39.1,31.9,81,47,28,30.36,30.20,5,1,10,0.00
2013-5-26,70.0,60.0,51.3,52.0,46.5,37.7,89,62,42,30.29,30.19,3,1,6,0.01
2013-5-27,77.8,64.8,50.8,61.7,54.1,47.8,90,70,51,30.27,30.10,6,0,9,0.00
2013-5-28,80.1,69.5,60.5,66.0,58.7,56.0,87,70,51,30.19,30.08,4,1,9,0.00
2013-5-29,81.4,69.8,58.6,66.0,59.8,55.0,93,72,44,30.21,30.10,4,0,12,0.00
2013-5-30,79.4,68.6,59.4,65.0,60.2,57.0,94,76,55,30.24,30.11,4,0,11,0.00
2013-5-31,81.4,70.0,61.9,65.0,60.3,59.0,91,72,49,30.19,30.06,4,0,11,0.00
2013-6-1,82.1,72.5,64.0,66.7,62.1,58.2,89,71,45,30.09,29.95,5,1,9,0.01
2013-6-2,69.1,65.1,62.2,66.0,63.5,61.0,97,95,87,30.01,29.89,2,0,6,0.66
2013-6-3,75.5,67.9,61.9,67.0,61.8,60.0,98,82,59,29.97,29.86,4,1,8,0.00
2013-6-4,78.8,70.2,58.9,65.2,61.5,55.2,95,75,46,30.05,29.96,3,0,7,0.00
2013-6-5,78.9,68.7,63.4,67.0,63.8,61.7,96,85,65,30.07,29.90,6,1,10,0.70
2013-6-6,77.5,66.6,62.5,68.0,64.1,61.5,97,92,71,29.95,29.75,3,0,7,0.01
2013-6-7,76.8,67.8,62.5,68.0,64.3,61.0,97,89,63,29.83,29.67,2,0,7,0.40
2013-6-8,74.7,66.0,57.7,65.7,61.4,56.9,97,86,66,30.09,29.82,3,0,5,0.31
2013-6-9,76.8,68.6,59.8,70.7,64.9,58.0,97,88,74,30.15,30.00,2,0,7,1.50
2013-6-10,76.1,69.4,64.1,69.3,63.8,59.0,98,83,62,30.01,29.88,2,0,6,0.68
2013-6-11,79.2,68.8,61.8,67.3,62.4,59.0,97,82,53,30.01,29.93,3,0,6,0.05
2013-6-12,85.4,74.4,62.1,75.0,66.3,60.0,92,77,59,30.04,29.91,3,0,6,0.00
2013-6-13,87.4,72.5,66.0,73.0,66.0,61.0,95,81,51,29.91,29.69,6,0,11,0.23
2013-6-14,73.2,66.9,58.5,61.0,56.5,54.0,87,70,54,30.06,29.82,6,1,9,0.00
2013-6-15,79.3,67.5,54.4,64.0,58.5,52.0,93,74,52,30.16,30.04,2,0,4,0.00
2013-6-16,81.9,71.6,60.7,69.0,63.1,58.0,92,76,51,30.13,29.99,1,0,4,0.00
2013-6-17,76.3,69.6,65.2,70.0,66.4,64.0,96,90,77,30.02,29.92,2,0,4,0.66
2013-6-18,75.3,67.3,62.4,70.0,65.0,60.0,97,92,79,29.95,29.80,3,0,6,0.02
2013-6-19,77.1,67.2,56.8,65.0,61.3,55.0,97,82,60,30.11,29.94,2,0,8,0.00
2013-6-20,78.0,68.7,59.4,66.0,62.6,58.0,97,82,62,30.21,30.11,5,0,8,0.00
2013-6-21,79.3,70.3,62.2,66.0,62.3,59.0,95,77,55,30.25,30.15,4,0,5,0.00
2013-6-22,80.0,70.5,59.2,63.0,59.6,54.0,96,71,41,30.24,30.09,1,0,7,0.00
2013-6-23,78.1,69.2,60.1,69.0,63.5,58.0,95,82,64,30.21,30.11,2,0,8,0.11
2013-6-24,81.6,70.7,62.8,71.0,66.2,62.0,97,86,63,30.22,30.08,2,0,6,0.03
2013-6-25,82.0,69.8,64.5,70.0,66.6,64.0,97,90,63,30.14,30.01,5,0,6,0.68
2013-6-26,82.2,71.2,62.8,73.0,67.7,62.0,97,89,68,30.05,29.89,2,0,4,0.18
2013-6-27,82.2,73.2,63.0,73.0,68.3,62.0,97,85,66,29.94,29.75,2,0,8,0.13
2013-6-28,84.8,75.0,65.3,72.4,67.6,64.0,97,79,55,29.82,29.60,3,0,7,0.00
2013-6-29,77.5,68.4,60.9,68.0,61.8,58.0,97,81,54,29.71,29.63,3,0,5,0.00
2013-6-30,82.2,72.4,59.3,68.0,63.1,56.0,95,74,51,29.79,29.69,2,0,7,0.02
2013-7-1,80.1,70.6,62.9,70.3,65.2,61.7,97,84,61,29.93,29.78,4,0,6,1.10
2013-7-2,80.0,71.6,63.3,71.5,66.5,63.0,97,85,65,30.09,29.93,5,0,9,0.12
2013-7-3,72.4,64.6,60.9,70.0,63.3,60.0,97,96,91,30.21,30.07,3,0,8,2.76
2013-7-4,69.7,64.3,60.8,68.7,63.5,59.9,98,97,96,30.22,30.15,1,0,8,1.41
2013-7-5,76.8,70.2,65.3,69.2,66.2,64.0,98,88,72,30.22,30.14,5,1,8,0.20
2013-7-6,77.6,70.8,65.0,70.9,67.7,64.0,98,90,75,30.18,30.08,4,0,7,0.67
2013-7-7,77.5,70.6,67.2,72.6,68.3,66.0,98,93,78,30.15,30.07,2,0,5,0.41
2013-7-8,80.9,71.5,66.5,70.0,67.0,65.9,98,86,62,30.19,30.09,4,1,5,0.01
2013-7-9,85.1,75.3,65.0,73.3,67.8,64.0,97,79,53,30.16,30.02,3,0,6,0.56
2013-7-10,82.5,70.4,65.9,75.0,68.2,65.0,98,93,72,30.11,29.93,2,0,5,0.50
2013-7-11,76.0,70.4,65.0,71.0,67.7,65.0,98,91,80,29.97,29.87,2,0,4,0.02
2013-7-12,79.4,69.7,64.5,69.0,65.1,62.0,97,86,62,29.98,29.87,4,0,6,0.00
2013-7-13,74.0,68.6,63.4,67.0,64.3,60.0,92,86,75,30.11,29.98,2,0,7,0.00
2013-7-14,69.7,68.0,64.6,68.3,66.8,64.0,97,96,93,30.27,30.08,3,0,10,1.26
2013-7-15,79.2,71.3,66.6,72.0,67.0,65.5,97,87,68,30.33,30.25,3,0,7,0.00
2013-7-16,85.2,72.6,64.1,72.0,68.3,63.0,97,87,56,30.33,30.23,2,0,5,0.08
2013-7-17,86.1,72.4,66.3,74.0,69.5,65.0,97,91,62,30.29,30.15,2,0,5,0.20
2013-7-18,86.2,72.3,64.6,75.0,68.3,64.0,97,88,62,30.21,30.05,2,0,7,0.00
2013-7-19,84.7,73.8,65.4,73.0,68.7,64.7,98,85,61,30.11,29.95,2,0,4,0.00
2013-7-20,80.5,72.8,66.8,73.4,68.9,66.0,97,88,71,30.02,29.91,2,0,4,0.02
2013-7-21,81.8,70.3,65.4,72.5,67.8,64.5,97,92,70,30.01,29.92,2,0,5,0.80
2013-7-22,83.1,73.0,65.9,74.0,68.2,65.0,98,86,63,29.99,29.80,2,0,5,0.10
2013-7-23,80.6,73.6,63.9,71.0,66.9,63.0,97,80,61,29.89,29.77,2,0,6,0.00
2013-7-24,81.6,72.4,65.8,73.1,66.8,61.9,97,83,62,29.85,29.77,4,0,6,0.02
2013-7-25,81.2,68.2,61.8,68.0,63.5,60.4,97,86,57,30.02,29.84,3,0,7,0.00
2013-7-26,80.7,72.1,59.4,70.5,65.5,58.1,97,81,63,30.08,29.98,2,0,8,0.00
2013-7-27,77.9,70.9,65.3,70.7,66.4,-99.9,97,87,72,30.00,29.86,1,-6,4,0.28
2013-7-28,76.7,69.4,62.9,68.6,64.8,62.0,98,86,70,30.03,29.90,3,0,6,0.00
2013-7-29,77.3,69.4,58.0,65.0,60.5,56.9,97,75,61,30.21,30.03,4,1,8,0.00
2013-7-30,79.2,66.7,56.8,69.0,60.8,55.0,95,82,66,30.24,30.14,2,0,4,0.00
2013-7-31,74.0,68.0,63.5,70.0,65.9,62.6,97,93,85,30.18,29.95,1,0,8,0.17
2013-8-1,77.3,71.9,65.9,71.8,67.6,64.0,97,87,75,29.98,29.90,2,0,6,0.45
2013-8-2,80.7,69.9,61.3,70.0,65.0,60.0,97,85,65,30.04,29.95,1,0,5,0.00
2013-8-3,79.6,72.2,62.8,70.4,65.8,61.0,97,81,65,30.04,29.96,2,0,6,0.00
2013-8-4,76.6,71.3,64.3,68.7,64.8,60.0,96,80,67,30.05,29.98,5,1,10,0.00
2013-8-5,82.5,73.0,60.7,71.0,65.3,59.0,95,78,59,30.07,29.94,1,0,5,0.00
2013-8-6,81.1,70.6,64.1,70.0,65.9,62.0,96,85,66,30.02,29.94,4,0,9,0.00
2013-8-7,75.8,69.6,67.2,71.0,67.6,66.0,97,93,80,30.03,29.98,3,0,7,0.22
2013-8-8,80.1,71.0,65.4,74.0,68.6,64.8,98,92,77,30.05,29.98,1,0,5,0.01
2013-8-9,84.4,71.6,66.7,75.0,69.7,65.8,98,94,72,30.07,29.99,3,0,7,0.47
2013-8-10,80.1,71.9,66.4,75.1,69.7,65.5,98,93,80,30.14,30.04,2,0,6,0.75
2013-8-11,80.5,70.9,65.7,74.2,68.9,64.8,98,93,79,30.15,30.05,1,0,5,0.07
2013-8-12,84.1,71.5,65.5,74.0,69.3,64.9,98,93,69,30.10,29.97,3,0,4,0.09
2013-8-13,80.9,70.7,67.5,74.0,68.1,65.0,98,92,73,29.96,29.83,4,0,8,0.02
2013-8-14,70.7,65.7,61.8,65.0,60.6,57.0,95,84,67,30.07,29.88,4,0,8,0.00
2013-8-15,70.2,63.0,59.9,61.0,57.9,55.0,92,83,67,30.14,30.05,4,0,10,0.00
2013-8-16,72.0,63.2,57.1,61.0,57.6,54.0,93,82,63,30.16,30.08,3,0,9,0.00
2013-8-17,67.8,64.2,59.0,62.0,59.6,55.0,96,85,75,30.18,30.10,3,0,6,0.10
2013-8-18,73.9,66.7,61.1,69.2,64.4,60.0,98,92,79,30.22,30.12,2,0,5,0.11
2013-8-19,72.2,66.2,63.3,68.0,65.0,62.8,98,96,84,30.19,30.09,1,0,3,0.93
2013-8-20,76.5,68.2,63.5,70.0,66.0,63.0,98,93,73,30.20,30.11,1,0,5,0.04
2013-8-21,74.5,69.2,65.1,71.0,67.0,64.0,98,93,85,30.23,30.12,1,0,5,0.00
2013-8-22,80.2,70.4,62.9,71.0,66.3,62.0,97,87,71,30.18,30.03,3,0,6,0.00
2013-8-23,80.6,69.4,62.1,70.0,65.9,61.0,98,89,69,30.09,29.99,7,0,9,0.00
2013-8-24,77.6,69.4,62.6,68.0,61.9,58.0,98,78,58,30.29,30.08,4,0,6,0.00
2013-8-25,76.7,66.8,55.2,64.0,58.0,53.0,95,75,52,30.40,30.27,3,0,8,0.00
2013-8-26,75.9,64.6,54.9,66.0,59.4,54.0,97,84,61,30.33,30.16,4,0,5,0.00
2013-8-27,76.9,68.6,59.3,68.3,64.4,58.0,96,87,72,30.18,30.04,2,0,8,0.00
2013-8-28,79.8,72.1,65.4,71.0,67.3,64.0,95,85,71,30.07,29.95,4,0,4,0.00
2013-8-29,80.4,74.2,69.7,72.0,69.1,66.0,94,84,71,29.98,29.91,4,0,4,0.00
2013-8-30,80.1,72.4,68.9,73.0,68.9,66.9,96,89,74,30.01,29.91,5,0,8,0.00
2013-8-31,81.3,70.7,65.9,73.0,68.4,65.0,98,92,74,29.96,29.85,3,0,4,0.04
2013-9-1,84.1,71.3,66.0,75.0,68.5,65.0,98,91,65,29.90,29.80,2,0,5,0.22
2013-9-2,79.7,70.4,63.5,73.0,67.6,63.0,98,91,75,29.93,29.83,2,0,5,0.00
2013-9-3,76.0,68.4,61.5,68.0,64.4,60.0,97,88,68,30.00,29.84,5,1,11,0.17
2013-9-4,78.8,67.3,57.7,68.0,63.1,56.9,98,87,67,30.12,30.00,3,0,4,0.00
2013-9-5,77.7,67.7,59.9,67.0,60.8,53.0,97,81,44,30.17,30.10,5,0,5,0.00
2013-9-6,77.4,65.5,56.7,67.0,60.4,55.7,97,85,59,30.20,30.08,2,0,7,0.00
2013-9-7,78.8,67.8,59.2,68.0,62.9,58.0,97,85,66,30.14,30.01,2,0,5,0.00
2013-9-8,76.5,68.6,62.0,70.0,65.2,61.0,97,89,73,30.03,29.95,2,0,5,0.00
2013-9-9,82.0,62.1,61.9,70.0,44.3,-99.9,97,73,60,30.13,30.02,4,-130,8,0.00
2013-9-10,82.8,70.4,60.4,71.0,65.3,59.4,97,85,59,30.25,30.13,5,0,5,0.00
2013-9-11,80.1,69.7,62.8,71.0,65.7,61.5,97,88,65,30.24,30.08,3,0,5,0.67
2013-9-12,75.8,68.5,63.7,71.0,66.5,63.0,98,93,82,30.11,29.89,2,0,5,0.21
2013-9-13,71.2,63.1,55.8,65.0,57.8,52.0,98,84,60,29.95,29.85,4,1,7,0.02
2013-9-14,70.5,60.0,50.0,59.3,54.4,48.6,96,83,60,30.13,29.96,1,0,4,0.00
2013-9-15,71.8,63.2,55.6,63.5,57.8,53.4,94,83,65,30.22,30.10,2,0,7,0.00
2013-9-16,75.0,64.3,55.4,65.0,59.3,55.0,97,85,58,30.19,30.11,3,0,8,0.00
2013-9-17,67.0,62.0,58.6,60.0,56.6,53.0,92,83,70,30.28,30.18,6,1,9,0.00
2013-9-18,64.3,60.4,57.3,60.0,56.9,52.6,96,88,77,30.28,30.18,4,0,7,0.01
2013-9-19,74.1,65.1,59.4,65.0,61.8,58.7,97,90,73,30.21,30.09,3,0,6,0.00
2013-9-20,77.1,66.0,58.8,68.0,62.9,58.0,98,90,70,30.10,29.91,2,0,4,0.00
2013-9-21,67.0,62.0,59.1,65.2,60.6,58.0,98,95,88,29.92,29.72,1,0,4,1.05
2013-9-22,67.1,60.2,53.1,59.0,54.3,51.5,97,82,64,29.95,29.79,4,1,8,0.00
2013-9-23,71.4,58.7,48.1,61.0,54.9,47.0,98,88,67,30.07,29.96,2,0,5,0.00
2013-9-24,71.1,60.9,52.2,63.0,57.6,51.0,97,89,68,30.10,29.93,4,0,9,0.00
2013-9-25,61.4,59.8,57.9,60.0,58.7,56.8,98,96,93,29.95,29.86,2,0,5,0.98
2013-9-26,68.9,59.4,56.6,62.0,57.3,55.0,98,93,74,30.06,29.90,2,0,7,0.01
2013-9-27,69.6,59.7,51.2,62.0,55.9,50.0,98,88,65,30.20,30.07,5,0,7,0.00
2013-9-28,67.9,60.3,53.4,58.0,55.2,52.0,95,84,64,30.27,30.14,2,0,7,0.00
2013-9-29,68.0,60.4,53.0,58.4,54.8,51.0,92,82,66,30.18,30.04,6,0,9,0.00
2013-9-30,68.7,60.3,54.5,60.0,56.2,53.0,97,87,65,30.11,30.01,1,0,4,0.00
2013-10-1,71.3,61.8,53.2,62.0,58.2,52.0,98,88,69,30.19,30.08,1,0,3,0.00
2013-10-2,72.6,62.4,52.7,64.0,58.1,52.0,98,86,64,30.21,30.10,2,0,4,0.00
2013-10-3,73.1,64.2,57.0,66.0,60.5,56.0,97,88,68,30.17,30.07,1,0,5,0.00
2013-10-4,75.4,66.8,58.9,65.0,61.6,57.9,97,84,65,30.19,30.09,2,0,3,0.00
2013-10-5,76.8,69.4,58.2,67.7,62.8,57.0,98,81,63,30.17,30.02,2,0,5,0.00
2013-10-6,74.6,66.7,59.9,66.8,61.8,58.8,97,85,65,30.05,29.86,5,0,6,0.01
2013-10-7,64.3,56.8,51.3,62.0,54.3,48.0,97,91,75,30.08,29.79,2,0,9,0.99
2013-10-8,63.3,53.3,42.0,53.0,48.1,41.0,98,84,62,30.24,30.07,3,0,6,0.00
2013-10-9,66.3,54.0,45.4,57.0,49.0,43.0,93,84,60,30.27,30.14,1,0,5,0.00
2013-10-10,65.7,58.8,44.7,56.2,51.7,43.6,98,79,60,30.17,30.07,4,1,2,0.00
2013-10-11,67.9,59.3,50.3,57.8,51.9,-99.9,96,79,49,30.10,30.01,4,1,2,0.00
2013-10-12,69.4,63.3,53.7,60.4,57.1,52.0,94,81,67,30.11,30.02,5,1,8,0.00
2013-10-13,68.3,64.0,58.7,61.6,59.6,57.4,96,86,76,30.21,30.11,2,0,6,0.06
2013-10-14,67.8,61.4,58.1,62.0,58.7,55.0,97,91,77,30.24,30.13,6,0,8,0.06
2013-10-15,65.4,59.7,55.9,59.0,56.0,54.0,96,88,76,30.19,30.05,2,0,5,0.00
2013-10-16,66.5,59.3,52.8,60.0,55.6,51.0,95,87,74,30.08,29.97,2,0,4,0.01
2013-10-17,68.1,60.6,53.8,64.0,58.5,51.0,97,92,82,29.98,29.83,3,0,4,0.02
2013-10-18,63.4,54.4,49.8,54.0,49.1,45.6,93,82,67,30.05,29.95,2,0,6,0.00
2013-10-19,59.5,54.0,48.1,55.0,50.4,45.4,97,88,72,29.99,29.88,2,0,4,0.00
2013-10-20,59.1,50.4,39.7,46.2,40.4,28.4,95,72,39,30.12,29.99,1,0,3,0.00
2013-10-21,62.6,51.1,40.1,53.0,46.5,39.0,97,85,63,30.19,30.03,3,0,5,0.00
2013-10-22,61.9,55.6,50.1,52.6,50.0,48.0,97,82,63,30.06,29.84,2,0,5,0.00
2013-10-23,51.2,45.0,37.9,47.0,37.0,29.0,94,74,56,30.09,29.78,9,2,12,0.00
2013-10-24,49.7,40.7,32.3,38.0,33.7,29.0,89,77,57,30.25,30.10,4,0,6,0.00
2013-10-25,42.0,35.8,30.0,36.0,27.6,24.9,88,73,58,30.45,30.25,7,1,10,0.00
2013-10-26,53.6,40.6,25.1,38.0,30.6,23.0,95,70,45,30.42,30.17,3,0,5,0.00
2013-10-27,61.4,54.0,44.9,50.4,45.1,34.0,88,72,58,30.18,30.09,6,0,7,0.00
2013-10-28,58.3,53.4,49.3,55.0,51.1,48.0,96,92,88,30.29,30.14,0,0,0,0.02
2013-10-29,63.3,56.3,50.3,53.0,50.2,48.6,96,81,61,30.37,30.27,0,0,0,0.00
2013-10-30,69.8,58.1,52.9,57.0,52.0,49.0,91,81,61,30.31,30.17,0,0,1,0.00
2013-10-31,66.2,61.3,55.6,59.0,55.1,51.0,93,80,67,30.18,29.76,4,1,12,0.00
2013-11-1,69.2,62.2,53.4,59.0,53.6,45.0,95,75,54,29.79,29.63,4,1,14,0.03
2013-11-2,56.6,50.3,45.1,45.0,40.7,37.0,83,70,54,30.07,29.76,7,1,10,0.00
2013-11-3,51.2,45.5,39.6,38.0,35.9,34.0,87,70,54,30.39,30.07,5,1,8,0.00
2013-11-4,52.3,45.5,40.0,35.0,32.4,31.0,74,61,46,30.53,30.39,6,1,12,0.00
2013-11-5,57.6,46.0,36.7,43.0,31.9,22.0,83,61,25,30.57,30.44,4,0,6,0.00
2013-11-6,63.0,54.5,48.3,52.0,49.7,43.0,96,84,66,30.45,30.14,5,1,8,0.01
2013-11-7,54.3,48.9,39.6,53.0,43.1,28.0,96,81,63,30.23,30.03,12,3,14,0.03
2013-11-8,47.1,40.8,35.9,30.0,23.9,16.0,70,53,31,30.39,30.24,8,3,11,0.00
2013-11-9,52.6,44.9,31.5,33.6,28.8,23.0,77,54,41,30.42,30.28,2,0,3,0.00
2013-11-10,60.5,49.3,40.5,38.0,30.9,25.0,67,51,31,30.35,30.24,8,1,10,0.00
2013-11-11,59.2,47.3,32.4,32.1,28.7,24.0,74,50,34,30.37,30.21,4,0,4,0.00
2013-11-12,50.0,37.3,24.0,38.0,26.3,14.0,85,66,44,30.55,30.15,13,5,17,0.00
2013-11-13,37.9,28.0,19.3,18.0,15.7,11.0,80,62,37,30.68,30.55,6,2,11,0.00
2013-11-14,53.2,40.0,24.2,24.2,18.5,14.8,74,46,24,30.59,30.37,5,0,7,0.00
2013-11-15,46.3,40.7,31.2,45.0,33.3,20.0,97,77,48,30.40,30.21,2,0,5,0.10
2013-11-16,58.1,51.8,44.7,54.0,49.7,44.0,97,93,85,30.31,30.19,6,1,12,0.01
2013-11-17,62.0,57.8,53.0,57.0,55.0,51.0,98,91,80,30.20,29.87,6,2,19,0.35
2013-11-18,58.2,53.9,44.3,57.0,40.8,31.0,98,63,41,30.09,29.85,12,4,15,0.02
2013-11-19,49.1,41.1,35.9,32.0,25.4,19.0,70,55,31,30.26,30.09,6,2,11,0.00
2013-11-20,46.3,41.4,34.0,31.0,27.0,23.7,74,57,41,30.47,30.26,7,2,15,0.00
2013-11-21,52.7,46.4,39.1,49.0,41.5,31.0,95,83,69,30.52,30.39,7,1,10,0.00
2013-11-22,64.1,54.3,48.3,58.0,51.9,47.5,97,92,78,30.42,30.17,5,0,5,0.00
2013-11-23,55.0,42.8,31.5,54.0,35.5,20.0,95,76,51,30.29,30.13,9,4,14,0.00
2013-11-24,31.4,25.8,20.6,20.2,11.0,4.6,73,55,33,30.57,30.28,8,4,13,0.00
2013-11-25,36.0,28.9,20.5,22.6,14.1,7.0,69,55,35,30.62,30.37,5,0,6,0.00
2013-11-26,43.1,38.3,30.7,42.5,36.9,22.6,98,95,69,30.38,29.73,2,0,4,1.47
2013-11-27,42.1,27.7,21.9,42.0,23.7,14.8,98,85,71,30.30,29.72,10,6,21,0.05
2013-11-28,40.1,27.7,17.9,25.1,18.1,14.0,87,69,40,30.57,30.30,4,0,6,0.00
2013-11-29,47.4,38.4,28.6,28.1,23.9,19.0,80,57,38,30.67,30.55,7,0,9,0.00
2013-11-30,43.5,36.5,29.4,27.4,24.8,22.0,76,63,52,30.65,30.41,4,0,7,0.00
2013-12-1,50.5,38.3,27.9,36.0,29.0,23.0,84,70,57,30.40,30.10,4,0,6,0.00
2013-12-2,52.4,42.9,34.1,42.0,36.4,30.0,89,78,61,30.09,29.85,3,0,6,0.00
2013-12-3,58.7,48.6,42.2,49.0,45.3,40.0,95,88,70,29.96,29.87,9,1,13,0.00
2013-12-4,63.1,54.1,47.9,55.0,50.5,47.0,96,88,70,30.06,29.95,3,0,10,0.00
2013-12-5,70.2,59.7,53.0,61.0,57.1,51.0,97,92,67,30.09,29.96,3,0,8,0.29
2013-12-6,72.6,60.5,48.2,63.0,57.6,46.8,98,91,63,30.06,29.88,5,1,11,0.66
2013-12-7,48.3,41.3,37.6,47.1,39.0,36.0,97,92,81,30.39,30.00,4,1,7,0.01
2013-12-8,41.7,38.2,35.8,40.8,36.7,35.0,97,94,91,30.37,30.23,7,2,17,0.33
2013-12-9,48.2,43.0,35.9,48.0,42.4,35.0,98,97,96,30.23,30.08,2,0,4,0.27
2013-12-10,44.7,36.9,26.2,44.0,33.3,24.0,97,87,66,30.39,29.97,11,2,17,0.48
2013-12-11,43.5,31.9,22.2,26.0,21.3,16.0,92,68,40,30.54,30.38,2,0,6,0.00
2013-12-12,34.0,28.9,24.6,22.0,17.6,11.0,86,64,40,30.53,30.42,6,1,8,0.00
2013-12-13,44.5,33.5,21.9,24.0,17.9,10.0,74,54,38,30.49,30.31,3,0,4,0.00
2013-12-14,42.9,40.4,37.5,40.7,36.8,23.0,96,88,56,30.31,29.82,5,1,10,0.49
2013-12-15,41.5,35.3,27.2,40.7,32.5,25.0,97,90,76,30.20,29.81,7,2,12,0.06
2013-12-16,49.2,35.4,25.5,34.0,27.5,24.0,94,76,45,30.32,30.20,6,0,6,0.00
2013-12-17,52.8,42.4,34.2,36.1,30.7,23.0,81,64,47,30.23,30.00,10,2,17,0.00
2013-12-18,41.6,33.8,26.6,23.8,18.0,11.0,79,55,29,30.37,30.16,11,3,13,0.00
2013-12-19,55.6,40.6,28.3,32.0,23.1,12.0,64,51,39,30.42,30.25,2,0,3,0.00
2013-12-20,61.4,49.7,40.4,48.0,33.2,24.0,81,54,39,30.27,30.14,3,0,5,0.00
2013-12-21,64.4,58.0,50.7,61.0,54.0,45.0,92,87,74,30.15,29.90,9,2,20,0.05
2013-12-22,67.4,57.0,54.1,61.0,54.7,53.0,97,93,68,30.05,29.86,7,1,16,3.01
2013-12-23,55.3,47.5,32.8,54.5,46.0,30.0,97,94,83,30.28,30.00,6,1,12,0.25
2013-12-24,32.7,27.8,21.0,30.0,22.1,16.0,91,79,66,30.50,30.28,10,3,13,0.00
2013-12-25,35.1,27.2,17.4,22.0,16.8,14.7,90,67,48,30.59,30.43,5,0,8,0.00
2013-12-26,42.2,31.9,23.3,27.0,22.0,16.0,78,67,53,30.50,30.38,3,1,6,0.00
2013-12-27,44.5,34.0,25.4,30.0,24.7,23.0,91,71,45,30.57,30.43,2,0,5,0.00
2013-12-28,44.7,37.0,28.0,42.0,32.1,23.0,96,83,62,30.49,30.14,3,0,12,0.44
2013-12-29,49.1,41.8,37.7,45.2,39.7,35.0,97,92,80,30.14,29.88,7,1,13,0.23
2013-12-30,40.8,36.0,32.0,38.0,34.1,31.0,96,92,86,30.23,30.05,6,1,8,0.00
2013-12-31,37.5,31.5,27.9,31.0,25.5,21.0,96,80,55,30.45,30.21,8,1,12,0.00
2014-1-1,43.2,35.5,24.9,30.5,25.9,20.0,88,69,53,30.45,30.19,3,0,12,0.00
2014-1-2,43.1,32.2,18.8,42.0,28.4,13.0,95,86,77,30.19,29.75,12,3,18,0.12